Dewpoint
2 2 -1 0 4 3 1 4 5 4 4 5 5 3 -0 -5 -6 -5 -5 -5 -5 -6 -6 -7 -8 -8 -9 -8 -5 -6 -8 -8 -7 -8 -8 -8 -8 -8 -9 -10 -10 -3
0 1 -2 -2 3 5 3 4 6 4 3 5 6 5 2 -2 -4 -4 -5 -5 -5 -5 -5 -5 -6 -7 -7 -8 -8 -8 -8 -8 -8 -8 -8 -8 -8 -8 -9 -9 -11 -8
1 3 2 -1 1 5 4 4 6 5 4 4 5 6 4 -0 -3 -3 -4 -4 -4 -5 -5 -5 -6 -6 -6 -7 -7 -7 -8 -8 -8 -8 -8 -8 -8 -8 -9 -9 -10 -11
3 5 5 4 2 3 4 4 5 6 5 4 4 6 5 1 -1 -2 -3 -3 -4 -5 -5 -5 -5 -5 -5 -5 -6 -7 -7 -7 -7 -8 -8 -8 -8 -8 -8 -9 -9 -9
4 5 6 7 5 4 5 5 5 6 6 5 4 6 6 3 1 -1 -3 -3 -2 -4 -5 -5 -5 -5 -5 -5 -5 -6 -6 -6 -7 -7 -8 -8 -9 -9 -8 -8 -8 -9
5 6 7 8 7 6 6 6 7 6 6 6 5 5 6 5 4 3 0 -2 -2 -2 -4 -4 -5 -5 -5 -5 -5 -5 -5 -6 -6 -6 -7 -7 -8 -8 -9 -8 -8 -8
7 7 8 8 7 6 6 7 7 7 6 5 5 5 5 6 6 6 5 3 1 -0 -1 -2 -3 -4 -5 -4 -5 -5 -5 -5 -6 -6 -6 -6 -7 -7 -8 -8 -8 -8
8 8 8 8 7 6 6 6 7 7 7 6 5 5 5 5 5 6 7 6 4 3 2 1 0 -1 -2 -3 -3 -4 -5 -5 -5 -5 -5 -5 -6 -6 -7 -7 -8 -7
5 5 5 5 6 6 6 6 6 6 7 7 6 5 5 5 5 5 6 6 6 6 5 4 4 3 2 0 -1 -1 -2 -3 -4 -4 -4 -4 -4 -5 -5 -5 -6 -7
4 3 2 2 3 5 6 7 5 4 5 6 7 6 6 6 6 6 6 6 6 6 6 6 6 5 4 3 3 1 0 -0 -2 -2 -2 -3 -4 -4 -3 -3 -4 -6
6 6 6 4 3 3 4 5 5 4 3 4 5 6 6 6 6 5 5 6 6 6 6 6 6 6 6 5 5 4 3 2 1 -0 -1 -1 -2 -3 -3 -3 -4 -5
8 8 8 8 7 5 5 5 4 4 3 3 4 4 5 5 4 3 4 5 5 6 7 7 6 6 6 6 6 5 4 4 3 2 1 0 -0 -1 -2 -2 -3 -4
8 8 8 8 8 8 7 6 5 4 3 3 2 2 3 2 3 4 4 4 4 6 6 7 7 7 6 6 6 5 5 5 4 3 3 2 1 1 -0 -1 -2 -3
5 4 3 3 4 6 6 6 5 5 5 4 4 4 5 4 5 5 6 4 5 6 6 6 6 6 6 7 6 6 5 5 5 4 4 3 2 2 1 0 -1 -2
2 0 -1 -0 1 3 5 5 5 5 6 6 7 7 7 7 6 6 6 5 5 5 6 6 6 6 6 6 6 6 6 5 5 5 4 4 3 3 2 1 0 -1
-1 -2 -1 0 1 1 2 3 4 4 5 6 6 6 6 6 6 7 7 6 5 5 6 6 6 6 6 5 5 6 6 5 5 5 4 4 3 3 2 2 1 -1
-4 -3 -3 -2 -1 -0 0 1 2 2 3 4 5 6 5 5 5 6 7 8 7 7 7 7 7 6 6 5 5 6 6 5 5 5 5 4 4 3 3 2 1 -0
-5 -4 -4 -4 -3 -2 -2 -1 0 1 1 2 3 4 5 5 6 6 7 7 7 7 7 7 7 7 6 5 6 7 6 6 5 5 5 4 4 3 2 2 1 0
-5 -5 -5 -4 -3 -3 -3 -2 -2 -1 -0 0 1 2 3 5 5 6 6 6 4 5 6 6 6 7 7 6 6 7 6 6 5 5 5 4 3 3 2 1 0 -0
-4 -4 -4 -4 -4 -5 -4 -4 -4 -3 -2 -1 -0 1 2 3 4 4 5 5 5 5 6 6 6 6 7 7 6 6 6 6 4 4 4 4 3 2 2 1 0 -0
-4 -3 -3 -3 -5 -6 -6 -5 -4 -2 -2 -1 -0 0 0 1 3 4 4 5 5 4 5 6 6 6 6 6 6 6 6 5 4 4 4 3 2 2 1 1 0 -1
-4 -3 -2 -2 -2 -3 -3 -4 -3 -3 -2 -1 -0 1 1 1 1 2 3 4 4 4 5 6 6 6 5 6 6 6 6 4 4 5 4 2 2 1 1 1 -1 -2
-4 -3 -3 -2 -2 -2 -3 -3 -3 -3 -3 -2 -2 -0 1 2 2 2 2 3 4 4 5 5 6 6 6 6 7 6 5 4 4 5 4 3 2 1 -0 -1 -2 -3
-4 -3 -3 -3 -3 -3 -3 -4 -5 -6 -6 -5 -3 -2 -1 1 2 2 2 3 3 4 4 5 5 6 6 7 7 6 5 5 5 5 4 3 1 0 -1 -1 -3 -3
-4 -4 -3 -3 -2 -2 -2 -3 -4 -5 -7 -6 -4 -2 -1 0 1 2 2 3 3 4 4 3 4 5 6 7 7 6 6 6 6 5 4 2 0 -1 -2 -2 -3 -3
-4 -4 -3 -3 -2 -1 -1 -1 -1 -3 -4 -4 -3 -2 -0 1 1 2 2 2 3 3 3 2 3 5 6 6 6 6 6 5 5 3 1 -1 -2 -3 -3 -3 -3 -3
Wind_Speed
21 19 17 17 14 11 11 10 9 8 7 6 6 4 2 3 4 4 4 4 4 4 5 5 5 5 5 5 4 4 6 7 7 7 7 7 7 7 7 6 5 6
21 19 17 17 15 12 11 11 10 9 8 8 7 7 5 2 2 3 4 4 3 3 3 3 4 4 4 4 3 3 4 5 6 6 6 7 8 7 8 8 7 6
20 18 15 15 15 13 11 11 11 10 9 9 8 8 9 5 2 3 4 4 4 3 2 2 2 2 2 2 2 2 3 3 4 5 5 6 6 7 7 7 7 6
20 18 15 13 13 12 11 11 11 11 10 10 9 9 11 9 6 6 6 6 6 5 3 2 1 0 0 1 0 1 2 2 2 3 4 5 4 5 6 6 6 6
20 18 17 14 12 12 10 10 11 11 10 10 11 10 11 12 10 9 8 8 8 8 7 6 5 4 2 2 2 1 1 1 1 2 2 3 4 4 4 4 5 5
18 17 16 14 14 14 12 10 10 11 10 10 11 11 12 13 13 11 11 10 10 10 10 10 9 8 6 5 5 4 3 3 1 1 2 1 2 2 2 2 3 3
15 15 14 14 15 16 15 12 11 12 11 10 11 12 13 14 15 14 13 12 12 12 13 13 12 11 10 9 9 8 6 6 4 3 4 4 2 2 2 2 2 3
15 15 15 16 16 16 16 15 13 12 12 12 14 13 12 14 16 15 15 15 15 15 15 15 15 14 14 12 12 12 10 10 9 6 6 6 5 5 6 4 2 2
18 18 18 19 18 17 16 16 16 15 15 16 16 15 14 14 15 15 16 17 18 17 17 17 17 17 17 16 15 14 14 13 12 10 9 9 9 8 8 8 6 4
19 20 21 21 20 20 19 18 19 17 16 17 17 17 18 18 16 16 18 19 19 19 19 19 19 19 18 19 17 16 16 16 15 13 12 12 12 10 8 9 10 8
13 14 17 19 21 22 21 20 19 16 16 18 19 19 18 19 20 20 20 20 21 22 22 21 21 20 19 20 19 17 18 18 17 16 14 14 14 12 11 11 12 11
9 10 11 14 16 17 17 19 20 21 22 24 25 25 22 21 24 25 22 22 22 23 24 24 23 22 20 20 19 18 18 20 20 18 17 16 15 14 14 14 13 12
8 9 9 9 10 12 14 16 19 22 24 25 27 29 26 23 25 28 26 24 24 24 25 25 25 23 21 21 21 20 20 21 21 20 19 18 17 17 17 16 15 14
5 6 5 4 4 5 7 9 12 15 16 18 21 23 24 23 23 25 25 24 25 27 28 28 27 26 24 23 23 22 23 24 23 22 22 20 19 19 18 17 16 15
3 1 1 1 1 0 2 4 6 7 8 10 13 15 18 20 21 22 23 22 24 26 28 30 30 29 28 26 24 25 26 27 25 23 23 21 21 20 18 18 17 16
1 0 1 0 0 1 2 3 4 5 6 7 9 11 13 15 16 19 21 22 23 25 27 31 32 31 30 29 27 26 28 29 26 25 24 22 21 20 19 19 18 17
1 1 1 1 2 2 3 4 4 5 6 7 8 10 11 12 14 15 17 19 22 24 26 28 30 30 30 29 27 27 30 32 30 26 24 22 22 21 20 19 18 16
2 2 1 2 3 4 4 5 5 6 7 7 8 10 10 12 13 15 16 18 20 22 23 24 26 28 28 27 27 27 30 34 32 28 24 22 22 20 19 18 17 16
3 2 3 3 4 4 5 6 7 6 7 8 9 10 11 12 14 15 17 18 19 20 21 22 23 25 26 26 27 28 30 33 32 29 25 23 22 20 19 17 17 17
3 3 4 5 6 6 6 7 7 7 8 9 9 10 11 13 15 16 17 18 19 19 20 21 22 22 22 24 28 30 31 32 31 28 25 23 21 20 20 19 18 18
3 4 5 6 7 6 7 7 8 8 9 9 10 11 12 13 14 16 16 17 18 19 19 21 22 21 19 22 26 28 30 30 30 28 25 22 21 21 21 21 21 20
4 5 6 7 7 7 7 7 8 9 9 10 11 12 13 14 14 15 16 16 17 18 19 21 22 21 20 21 23 26 27 27 27 28 27 24 23 23 23 22 21 20
6 7 8 8 8 8 8 8 9 10 11 11 12 13 14 14 14 15 16 17 17 17 20 21 21 21 21 22 23 25 26 25 25 28 29 27 25 23 22 20 19 18
7 8 9 9 10 11 11 12 12 13 13 13 13 14 14 15 15 15 15 16 17 19 21 22 21 21 22 23 23 24 25 25 25 27 29 28 25 22 19 18 16 15
9 10 11 12 12 13 13 13 13 13 14 14 14 14 15 15 15 15 15 17 19 22 23 22 21 21 22 22 22 23 24 25 25 26 26 24 21 17 14 12 11 12
12 12 12 13 13 13 13 13 13 14 14 14 15 15 15 15 15 15 17 20 22 23 23 21 20 20 20 21 22 22 22 23 24 23 21 18 17 15 14 13 12 14
Wind_Direction
183 191 191 187 189 197 191 181 191 193 180 199 230 257 312 53 57 46 61 74 76 82 85 83 87 85 78 79 75 59 52 55 58 58 59 62 64 66 65 63 77 87
188 192 195 190 185 198 203 184 193 208 189 193 224 248 268 318 42 22 27 46 56 74 85 82 86 88 87 89 76 60 55 52 56 55 54 58 61 64 67 66 63 64
189 189 195 196 184 192 213 196 194 213 203 192 212 241 260 277 314 330 350 0 0 27 64 70 80 88 83 90 84 60 62 51 52 54 51 55 61 63 69 74 73 67
189 186 187 195 187 189 218 216 200 208 210 201 206 228 250 268 285 298 314 325 328 338 345 347 1 308 14 63 314 55 74 51 45 51 52 58 57 58 64 71 76 77
192 187 183 187 185 184 207 219 207 207 213 213 209 215 238 260 273 284 296 305 309 314 319 318 315 308 305 300 285 291 326 345 53 40 28 54 57 51 56 59 67 72
194 192 188 189 188 185 191 204 206 206 211 222 225 220 228 249 265 272 278 287 291 295 301 302 302 303 302 300 287 280 289 287 257 334 331 17 77 60 41 37 46 55
192 194 193 196 200 197 196 202 212 217 217 225 239 241 238 244 256 263 265 272 278 280 284 287 289 289 289 291 285 281 283 278 277 293 299 299 309 334 339 344 6 10
191 196 199 203 207 208 209 212 218 227 229 228 234 246 252 251 258 263 257 257 265 269 271 274 278 280 279 278 276 277 278 276 279 285 280 280 290 303 306 304 316 336
208 217 220 219 218 218 217 217 219 226 235 237 235 236 240 244 257 267 262 258 259 258 256 259 264 270 274 273 270 269 270 271 276 277 270 267 275 286 290 290 295 304
224 232 235 235 231 225 220 219 224 226 234 245 249 245 241 241 243 249 255 258 256 251 248 248 251 256 261 266 267 264 263 265 268 269 265 266 273 276 268 270 283 294
215 222 231 236 236 234 233 235 237 234 236 245 250 250 249 249 249 248 247 247 249 251 249 245 245 246 248 254 258 255 252 256 262 265 264 265 269 265 254 256 271 283
200 201 213 226 231 232 236 242 248 250 249 248 247 249 251 255 261 260 252 244 243 248 250 246 243 243 243 246 249 247 243 246 253 259 261 262 262 256 252 254 263 273
207 206 207 215 221 223 226 233 241 248 251 248 246 249 250 253 259 259 256 254 250 248 248 247 244 243 243 244 246 246 242 242 247 252 256 258 257 252 253 258 261 265
192 206 213 221 223 227 238 243 242 244 249 249 248 248 245 246 254 254 254 258 257 250 248 247 247 246 243 243 246 246 245 244 244 247 250 253 252 249 251 257 262 265
156 185 63 46 61 146 261 280 277 270 270 263 256 253 249 250 256 254 250 253 253 250 249 248 249 247 243 243 245 244 245 246 244 244 246 246 246 247 248 252 260 266
137 191 66 126 236 223 227 242 264 278 284 280 274 271 266 264 262 255 253 252 248 246 247 247 247 247 247 247 245 240 241 244 244 241 241 242 243 245 248 254 261 266
145 201 280 264 246 247 251 247 242 246 254 264 274 278 278 278 272 263 260 259 254 249 250 250 250 251 252 250 244 237 237 241 242 240 238 239 243 246 252 259 264 268
193 211 256 264 252 249 254 251 244 246 249 253 260 267 271 274 274 269 265 263 260 257 255 254 254 253 251 247 239 234 236 239 238 237 237 237 240 246 252 259 266 271
220 228 235 240 248 256 258 257 258 263 264 261 259 259 259 259 261 262 263 263 263 261 258 258 259 257 252 244 236 233 237 239 237 235 237 237 238 244 247 251 261 266
251 249 239 237 248 261 269 274 276 275 270 267 266 265 263 262 262 260 259 261 263 261 258 259 261 259 252 244 240 239 240 240 237 236 238 239 240 244 246 246 251 254
267 259 253 256 270 283 288 289 288 285 282 279 276 273 268 266 266 265 264 262 261 261 260 257 257 257 251 242 242 241 239 237 237 239 240 238 236 239 243 245 250 255
255 255 257 264 275 280 282 285 285 283 283 280 277 276 271 267 265 266 268 267 265 264 263 258 255 256 253 245 241 240 237 236 239 240 237 234 233 237 243 250 257 264
253 258 262 266 271 272 276 279 278 278 278 276 275 274 272 272 269 267 266 267 267 266 264 262 257 255 255 251 245 242 238 237 240 240 237 236 238 241 247 256 264 272
252 256 258 261 263 268 273 274 276 281 283 280 276 272 270 270 269 268 268 265 263 259 259 262 260 256 254 251 244 240 238 238 240 239 236 237 241 246 254 264 271 277
255 255 256 258 258 261 267 269 273 280 284 282 278 272 269 269 269 269 266 260 256 254 256 260 260 256 253 248 240 235 235 238 240 237 235 239 244 248 253 260 265 268
259 259 260 263 262 261 263 264 268 274 277 275 271 266 264 265 265 262 258 255 254 255 258 262 260 257 253 245 237 233 233 235 235 230 227 229 231 230 230 235 244 255
Height
1506 1508 1509 1511 1513 1514 1515 1517 1518 1519 1520 1521 1521 1521 1521 1522 1523 1523 1524 1524 1524 1524 1525 1525 1525 1526 1526 1526 1526 1526 1526 1527 1527 1527 1528 1528 1529 1529 1529 1530 1530 1530
1506 1507 1509 1511 1513 1514 1515 1517 1519 1519 1521 1522 1522 1521 1521 1522 1523 1523 1524 1524 1525 1525 1525 1525 1526 1526 1526 1526 1526 1527 1527 1527 1527 1527 1528 1528 1529 1529 1529 1530 1530 1530
1505 1507 1508 1510 1512 1514 1515 1517 1519 1520 1521 1522 1522 1522 1522 1522 1523 1523 1524 1524 1525 1525 1525 1525 1526 1526 1526 1527 1527 1527 1527 1527 1527 1528 1528 1528 1528 1529 1529 1529 1530 1530
1505 1507 1509 1511 1513 1515 1516 1517 1519 1520 1521 1522 1523 1523 1522 1523 1524 1524 1524 1524 1524 1525 1525 1525 1526 1526 1526 1526 1526 1527 1527 1527 1527 1528 1528 1528 1529 1529 1529 1530 1530 1530
1505 1507 1509 1511 1513 1515 1516 1517 1519 1520 1521 1522 1522 1523 1522 1522 1523 1524 1524 1524 1524 1524 1525 1525 1525 1525 1526 1526 1526 1526 1526 1527 1527 1527 1528 1528 1528 1529 1529 1529 1530 1530
1505 1507 1509 1511 1512 1514 1515 1517 1519 1521 1522 1522 1522 1523 1522 1522 1522 1523 1523 1524 1524 1524 1524 1525 1525 1525 1525 1525 1525 1526 1526 1526 1526 1527 1527 1527 1528 1528 1529 1529 1529 1530
1505 1507 1509 1510 1511 1512 1514 1515 1518 1520 1522 1523 1523 1522 1522 1522 1522 1522 1522 1522 1523 1523 1523 1524 1524 1524 1525 1525 1525 1525 1525 1525 1525 1526 1526 1526 1527 1527 1528 1528 1528 1528
1503 1505 1507 1509 1510 1511 1512 1513 1516 1519 1521 1523 1523 1522 1522 1521 1521 1521 1522 1522 1522 1522 1522 1522 1523 1523 1524 1524 1524 1524 1524 1524 1524 1525 1525 1525 1525 1526 1526 1527 1527 1527
1501 1503 1504 1506 1509 1510 1510 1511 1514 1516 1519 1521 1522 1522 1522 1521 1520 1520 1521 1522 1522 1522 1522 1522 1521 1521 1522 1522 1523 1523 1523 1523 1523 1524 1524 1524 1524 1525 1525 1525 1526 1526
1501 1502 1503 1504 1506 1508 1508 1509 1511 1513 1516 1519 1520 1520 1520 1520 1520 1519 1519 1520 1520 1521 1522 1522 1521 1521 1521 1521 1522 1522 1522 1522 1522 1522 1523 1523 1523 1523 1523 1523 1524 1524
1499 1501 1502 1503 1503 1504 1505 1506 1508 1509 1512 1516 1517 1517 1518 1519 1518 1517 1516 1516 1517 1519 1520 1521 1521 1520 1520 1520 1521 1521 1521 1521 1521 1521 1522 1521 1521 1522 1522 1522 1522 1523
1497 1498 1500 1502 1501 1501 1502 1504 1505 1506 1508 1511 1512 1512 1514 1516 1516 1515 1514 1514 1515 1517 1519 1519 1520 1520 1519 1519 1519 1521 1521 1521 1520 1521 1521 1520 1520 1520 1521 1521 1521 1521
1497 1498 1499 1500 1500 1499 1500 1501 1503 1505 1505 1506 1507 1508 1509 1511 1511 1511 1512 1513 1514 1516 1517 1518 1518 1519 1519 1518 1518 1519 1520 1519 1519 1520 1520 1519 1519 1519 1519 1519 1519 1520
1497 1497 1498 1498 1499 1498 1499 1500 1502 1503 1504 1504 1505 1505 1506 1507 1507 1508 1509 1510 1512 1515 1516 1515 1516 1516 1517 1518 1518 1518 1518 1517 1517 1517 1517 1518 1517 1517 1517 1517 1517 1518
1496 1497 1497 1497 1497 1498 1499 1499 1500 1501 1502 1503 1503 1504 1505 1505 1505 1505 1506 1506 1508 1510 1513 1513 1513 1512 1512 1514 1516 1517 1517 1515 1515 1515 1515 1516 1516 1515 1515 1515 1515 1516
1496 1496 1496 1497 1497 1498 1499 1499 1500 1501 1501 1502 1502 1502 1503 1503 1503 1504 1504 1504 1505 1507 1509 1510 1510 1510 1509 1510 1512 1514 1515 1514 1513 1513 1514 1514 1514 1514 1514 1513 1513 1514
1495 1495 1496 1496 1497 1498 1498 1499 1500 1500 1501 1501 1501 1501 1501 1501 1501 1501 1502 1502 1503 1504 1506 1506 1507 1507 1507 1507 1509 1511 1512 1511 1510 1511 1512 1512 1512 1512 1512 1512 1512 1512
1494 1495 1495 1496 1496 1497 1498 1498 1498 1499 1499 1500 1500 1499 1499 1499 1499 1500 1500 1501 1501 1501 1502 1502 1502 1503 1504 1505 1506 1508 1509 1508 1507 1508 1509 1510 1510 1510 1510 1510 1510 1510
1493 1493 1494 1495 1495 1496 1496 1496 1497 1497 1497 1497 1497 1498 1498 1498 1498 1498 1498 1499 1499 1499 1499 1498 1498 1499 1500 1502 1503 1505 1506 1505 1505 1505 1506 1507 1508 1508 1509 1509 1508 1509
1492 1492 1493 1493 1494 1494 1494 1494 1495 1495 1495 1495 1495 1495 1496 1496 1496 1496 1496 1497 1496 1496 1496 1495 1495 1496 1498 1499 1500 1502 1503 1502 1502 1503 1503 1505 1506 1506 1507 1507 1507 1507
1491 1491 1491 1492 1492 1492 1492 1492 1493 1492 1492 1493 1493 1493 1494 1494 1494 1494 1494 1494 1494 1494 1494 1493 1493 1494 1495 1497 1497 1499 1500 1500 1500 1501 1501 1503 1504 1504 1504 1505 1505 1505
1489 1490 1490 1490 1490 1491 1491 1491 1491 1491 1491 1491 1491 1491 1492 1492 1492 1492 1492 1492 1491 1491 1491 1490 1490 1492 1493 1494 1495 1496 1497 1497 1498 1499 1499 1500 1501 1501 1502 1502 1503 1503
1487 1488 1488 1488 1489 1489 1489 1489 1489 1489 1489 1489 1489 1490 1490 1489 1490 1489 1489 1489 1489 1489 1488 1487 1488 1489 1490 1491 1492 1493 1494 1494 1495 1496 1497 1498 1499 1499 1500 1501 1501 1501
1486 1486 1486 1487 1487 1487 1487 1487 1487 1487 1487 1487 1487 1487 1487 1487 1487 1487 1487 1487 1486 1486 1485 1485 1486 1487 1487 1489 1490 1491 1491 1491 1492 1494 1495 1496 1497 1498 1498 1499 1499 1499
1484 1484 1484 1484 1484 1485 1485 1485 1485 1485 1485 1485 1485 1485 1485 1485 1485 1485 1485 1484 1483 1483 1482 1483 1484 1485 1485 1486 1487 1488 1489 1490 1491 1492 1493 1494 1495 1496 1497 1497 1498 1497
1481 1481 1481 1482 1482 1482 1482 1482 1482 1482 1482 1482 1482 1482 1483 1483 1483 1482 1481 1480 1480 1480 1480 1481 1482 1483 1483 1484 1485 1486 1487 1488 1489 1490 1491 1492 1493 1494 1495 1495 1496 1495